User: anonymous
Location: Fremont
(37.5480°N, 121.9880°W)
Time: 06:42:58
(UTC-07:00)
Language:

Cosmos 1766 - Orbit

View from above orbital plane
View from above orbital plane
View from above satellite
View from above satellite

Ground track
Ground track

The orbit data is extracted from the following two-line orbital elements,

1 16881U 86055A   14233.37828479  .00000652  00000-0  42930-4 0  9387
2 16881 082.5120 309.7109 0011471 003.0999 357.0297 15.05808239526015
Epoch (UTC): 21 August 2014 09:04:43
Eccentricity: 0.0011471
inclination: 82.5120°
perigee height: 541 km
apogee height: 557 km
right ascension of ascending node: 309.7109°
argument of perigee: 3.0999°
revolutions per day: 15.05808239
mean anomaly at epoch: 357.0297°
orbit number at epoch: 52601

The dashed part of the orbit path shows where the satellite is in the earth's shadow,  

DLR